Regional Weather Roundup
Issued by NWS

Home | Current Version | Previous Version | Text Only | Print | Product List | Glossary Off
Versions: 1 2 3 4 5 6 7 8 9 10 11 12 13 14 15 16 17 18 19 20 21 22 23 24 25 26 27 28 29 30 31 32 33 34 35 36 37 38 39 40 41 42 43 44 45 46 47 48 49 50

000
ASUS43 KLOT 040608
RWRIL

ILLINOIS REGIONAL WEATHER ROUNDUP
NATIONAL WEATHER SERVICE CHICAGO/ROMEOVILLE IL
100 AM CDT SAT JUL 04 2015

NOTE: "FAIR" INDICATES FEW OR NO CLOUDS BELOW 12,000 FEET WITH NO
SIGNIFICANT WEATHER AND/OR OBSTRUCTIONS TO VISIBILITY.

* THESE STATIONS ARE NOT UNDER NWS QUALITY CONTROL. THEY ALSO MAY NOT
  REPORT WEATHER SUCH AS PRECIPITATION OR FOG.

ILZ001-002-007-009-015-016-024-040700-
NORTHWEST ILLINOIS

CITY           SKY/WX    TMP DP  RH WIND       PRES   REMARKS
MOLINE         CLEAR     60  58  92 CALM      29.97R FOG
6HR MIN TEMP:  60; 6HR MAX TEMP:  76;

STERLING*      CLEAR     57  55  94 CALM      29.97S
SAVANNA*       CLEAR     58  56  92 CALM      29.96F
$$

ILZ003-004-008-010-011-017-018-040700-
NORTH CENTRAL ILLINOIS

CITY           SKY/WX    TMP DP  RH WIND       PRES   REMARKS
ROCKFORD       CLEAR     61  57  87 S3        29.97S
6HR MIN TEMP:  61; 6HR MAX TEMP:  75;

FREEPORT*      CLEAR     56  54  92 CALM      29.98F
ROCHELLE*      CLEAR     59  58  95 CALM      29.98S
DE KALB*       CLEAR     61  56  84 CALM      29.98S
PERU*          CLEAR     64  58  82 CALM      29.97S
$$

ILZ005-006-012>014-019>023-040700-
NORTHEAST ILLINOIS

CITY           SKY/WX    TMP DP  RH WIND       PRES   REMARKS
CHICAGO-OHARE  PTCLDY    62  56  80 CALM      29.96R
6HR MIN TEMP:  61; 6HR MAX TEMP:  73;

CHICAGO-MIDWAY PTCLDY    64  55  72 W3        29.95S
6HR MIN TEMP:  64; 6HR MAX TEMP:  73;

AURORA         CLEAR     60  55  83 CALM      29.97R
6HR MIN TEMP:  60; 6HR MAX TEMP:  76;

LANSING*       CLEAR     58  54  85 CALM      29.96S
WAUKEGAN       CLEAR     56  53  90 SW3       29.95S
6HR MIN TEMP:  54; 6HR MAX TEMP:  67;

DUPAGE AIRPORT CLEAR     60  55  83 CALM      29.96R
6HR MIN TEMP:  59; 6HR MAX TEMP:  76;

KANKAKEE*      CLEAR     61  59  92 CALM      29.96F
WHEELING       CLEAR     60  54  80 CALM      29.97S
6HR MIN TEMP:  59; 6HR MAX TEMP:  71;

MORRIS*        CLEAR     62  57  84 CALM      29.94F
NORTHERLY ISL    N/A     63  54  72 SW1         N/A
$$

LMZ740>746-040700-
SOUTHERN LAKE MICHIGAN

STATION/POSITION SKY/WX   TEMP    WIND        PRES    VSBY  WAVE
                          AIR SEA DIR/SP/G                  HT/PER
                          (F)     (DEG/KT/KT) (MB)    (MI)  (FT/S)
HARRISON CRIB              65     190/  5/  5   N/A
BURNHAM HARBOR             64      CALM  /  2   N/A
CALUMET HARBOR             64     230/  2/  2   N/A
BURNS HARBOR               64      CALM  /  1 1014.6S
MICHIGAN CITY              61      80/  2/  3   N/A
MICHIGAN CITY 6N           62 64  190/  2/  2   N/A           1
ST. JOSEPH                 61 62                N/A           0
$$

ILZ025>027-034>036-040-047-049-050-058-095>099-040700-
WEST-CENTRAL ILLINOIS

CITY           SKY/WX    TMP DP  RH WIND       PRES   REMARKS
QUINCY         CLEAR     66  61  84 CALM      29.98R
GALESBURG*     CLEAR     59  58  96 CALM      29.98R
MACOMB*        CLEAR     60  60  99 NW3       30.00R
JACKSONVILLE*  CLEAR     65  64  94 CALM      29.96S FOG
PITTSFIELD*    PTCLDY    66  62  89 CALM      29.99R
$$

ILZ028>032-037-038-041>044-048-051>054-059>061-040700-
CENTRAL ILLINOIS

CITY           SKY/WX    TMP DP  RH WIND       PRES   REMARKS
PONTIAC        CLEAR     60  59  96 CALM      29.98R
BLOOMINGTON    CLEAR     66  60  81 N3        29.98S
DECATUR        CLEAR     62  59  90 CALM      29.96S
PEORIA         CLEAR     64  59  83 CALM      29.97R HAZE
6HR MIN TEMP:  64; 6HR MAX TEMP:  78;

LACON*         CLEAR     60  58  92 CALM      29.96S
LINCOLN*       PTCLDY    64  60  89 CALM      29.97S
SPRINGFIELD    CLEAR     66  64  93 CALM      29.97R FOG
6HR MIN TEMP:  66; 6HR MAX TEMP:  79;

TAYLORVILLE    CLEAR     61  61 100 CALM      29.97R FOG
$$

ILZ033-039-045-046-055>057-062-063-040700-
EAST-CENTRAL ILLINOIS

CITY           SKY/WX    TMP DP  RH WIND       PRES   REMARKS
CHAMPAIGN      CLEAR     60  58  92 N3        29.97R
DANVILLE*      CLEAR     62  59  91 NE5       29.94R
RANTOUL*       CLEAR     64  60  85 CALM      29.96S
MATTOON        CLEAR     64  62  93 CALM      29.95R
PARIS*         CLEAR     65  63  94 N3        29.96S
$$

ILZ079-100>102-040700-
SOUTHWEST ILLINOIS

CITY           SKY/WX    TMP DP  RH WIND       PRES   REMARKS
ALTON          FOG       66  66 100 CALM      29.96S VSB 1
BELLEVILLE     CLEAR     69  69 100 N3        29.94S
CAHOKIA*       CLEAR     69  66  90 CALM      29.95S FOG
SPARTA*        CLEAR     70  67  92 CALM      29.95S
$$

ILZ064>066-069>071-074>076-080>082-084>086-088>090-092>094-040700-
SOUTH-CENTRAL ILLINOIS

CITY           SKY/WX    TMP DP  RH WIND       PRES   REMARKS
CARBONDALE     CLEAR     70  68  93 NW3       29.92F FOG
6HR MIN TEMP:  70; 6HR MAX TEMP:  82;

CAIRO*         PTCLDY    72  72  99 CALM      29.91S FOG
EFFINGHAM*     CLEAR     66  62  85 CALM      29.96S
MARION         CLEAR     68  68 100 CALM      29.93F FOG
MT. VERNON     CLEAR     68  63  83 CALM      29.94S
CENTRALIA*     CLEAR     66  64  91 CALM      29.95S FOG
SALEM*         CLEAR     69  66  89 CALM      29.95S FOG
METROPOLIS*      N/A     69  69 100 CALM      29.93R FOG
$$

ILZ067-068-072-073-078-083-087-091-040700-
SOUTHEAST ILLINOIS

CITY           SKY/WX    TMP DP  RH WIND       PRES   REMARKS
LAWRENCEVILLE  CLEAR     67  65  93 NE5       29.93  FOG
FLORA*         CLEAR     66  65  97 N3        29.94S FOG
FAIRFIELD*     CLEAR     68  68  99 CALM      29.92R FOG
HARRISBURG*    CLEAR     69  69  99 N5        29.93F FOG
ROBINSON*      CLEAR     66  65  95 CALM      29.94S FOG
CARMI*         CLEAR     68  63  83 CALM      29.92S HAZE
$$

ABBREVIATIONS USED IN REMARKS
   TC - TEMPERATURE IN CELSIUS
  WCI - WIND CHILL INDEX
   HX - HEAT INDEX
  VSB - VISIBILITY
$$




USA.gov is the U.S. government's official web portal to all federal, state and local government web resources and services.